Starlink 33814

operational
NORAD ID: 63582 Int'l Des: 2025-076 Owner: SPXS Country: US Constellation: starlink
LEOCIRCULAR

关于 Starlink 33814

正在加载描述...

实时位置

正在加载3D地球...

即将过境

高度历史

Altitude vs Time

uPlot chart will show altitude changes over time

两行轨道根数

1 63582U 25076P 25257.99790167 .00025015 00000-0 91518-3 0 9993
2 63582 42.9985 233.6427 0000886 214.8346 145.2448 15.27590046 24968
Epoch: Sep 14, 2025 • Age: 24 hours

当前状态

高度 481.8 km
速度 7.63 km/s
星下点 4.13°N, 44.61°E
发射日期 Apr 14, 2025
运行时间 0.4 years
类型 internet

技术详情

分类 Payload
质量 575.00 kg
干质量 530.00 kg
总质量 575.00 kg
长度 0.30 m
直径 4.10 m
跨度 29.00 m
形状 Box + pan
制造商 SPXS
平台类型 Starlink V2MO
阶段状态 In Orbit
所有者/国家 SPXS/US

大型星座

Loading constellations...